Weather History for Renton, WA

Change the Weather History Date:

Sunday, March 24, 2013

  Actual Average Record
Temperature  
Mean Temperature 42 °F -  
Max Temperature 55 °F 53 °F 68 °F (2001)
Min Temperature 30 °F 40 °F 30 °F (2013)
Degree Days  
Heating Degree Days 23    
Moisture  
Dew Point 31 °F    
Average Humidity 68    
Maximum Humidity 89    
Minimum Humidity 37    
Precipitation  
Precipitation 0.00 in - - ()
Sea Level Pressure  
Sea Level Pressure 30.24 in    
Wind  
Wind Speed 2 mph (NW)    
Max Wind Speed 9 mph    
Max Gust Speed -    
Visibility 10 miles    
Events      
Averages and records for this station are not official NWS values.
T = Trace of Precipitation, MM = Missing Value Source: NWS Daily Summary

Daily Weather History Graph

Daily Weather History Graph

Search for Another Location

Airport:

Trip Planner

Search our weather history database for the weather conditions in past years. The results will help you decide how hot, cold, wet, or windy it might be!

Date:

Astronomy

Mar. 24, 2013 Rise Set
Actual Time 7:02 AM PDT 7:27 PM PDT
Civil Twilight 6:32 AM PDT 7:58 PM PDT
Nautical Twilight 5:55 AM PDT 8:35 PM PDT
Astronomical Twilight 5:18 AM PDT 9:13 PM PDT
Moon 4:53 PM PDT (3/24) 5:26 AM PDT (3/24)
Length of Visible Light 13h 26m
Length of Day
12h 24m
Waxing Gibbous, 92% of the Moon is Illuminated
Mar 24
Waxing Gibbous
Mar 27
Full
Apr 2
Last Quarter
Apr 10
New
Apr 18
First Quarter

Hourly Weather History & Observations

Time (PDT) Temp. Windchill Dew Point Humidity Pressure Visibility Wind Dir Wind Speed Gust Speed Precip Events Conditions
12:53 AM 34.0 °F - 28.0 °F 79% 30.32 in 10.0 mi Calm Calm - N/A   Clear
1:53 AM 34.0 °F - 28.9 °F 82% 30.32 in 10.0 mi Calm Calm - N/A   Clear
2:53 AM 33.1 °F - 30.0 °F 89% 30.32 in 10.0 mi Calm Calm - N/A   Clear
3:53 AM 30.9 °F - 28.0 °F 89% 30.32 in 10.0 mi Calm Calm - N/A   Clear
4:53 AM 32.0 °F - 28.0 °F 85% 30.31 in 10.0 mi Calm Calm - N/A   Clear
5:53 AM 30.9 °F - 28.0 °F 89% 30.30 in 10.0 mi Calm Calm - N/A   Clear
6:53 AM 30.9 °F - 28.0 °F 89% 30.31 in 10.0 mi Calm Calm - N/A   Clear
7:53 AM 33.1 °F - 28.9 °F 85% 30.30 in 10.0 mi Calm Calm - N/A   Clear
8:53 AM 36.0 °F 33.3 °F 33.1 °F 89% 30.29 in 10.0 mi NNW 3.5 mph - N/A   Clear
9:53 AM 39.9 °F 35.8 °F 34.0 °F 79% 30.29 in 10.0 mi NW 5.8 mph - N/A   Clear
10:53 AM 41.0 °F 36.4 °F 33.1 °F 73% 30.28 in 10.0 mi NW 6.9 mph - N/A   Overcast
11:53 AM 43.0 °F 38.8 °F 34.0 °F 71% 30.27 in 10.0 mi NW 6.9 mph - N/A   Mostly Cloudy
12:53 PM 46.0 °F 41.9 °F 33.1 °F 61% 30.26 in 10.0 mi NW 8.1 mph - N/A   Scattered Clouds
1:53 PM 48.9 °F - 32.0 °F 52% 30.25 in 10.0 mi NNW 5.8 mph - N/A   Overcast
2:53 PM 51.1 °F - 30.9 °F 46% 30.22 in 10.0 mi NNW 5.8 mph - N/A   Mostly Cloudy
3:53 PM 54.0 °F - 30.9 °F 41% 30.19 in 10.0 mi NW 9.2 mph - N/A   Overcast
4:53 PM 54.0 °F - 30.0 °F 40% 30.17 in 10.0 mi WNW 9.2 mph - N/A   Mostly Cloudy
5:53 PM 53.1 °F - 27.0 °F 37% 30.16 in 10.0 mi West 5.8 mph - N/A   Overcast
6:53 PM 50.0 °F - 34.0 °F 54% 30.15 in 10.0 mi NNW 4.6 mph - N/A   Overcast
7:53 PM 48.0 °F - 32.0 °F 54% 30.14 in 10.0 mi Calm Calm - N/A   Scattered Clouds
8:53 PM 48.0 °F - 34.0 °F 58% 30.15 in 10.0 mi Calm Calm - N/A   Overcast
9:53 PM 46.0 °F 43.9 °F 37.0 °F 71% 30.15 in 10.0 mi NNW 4.6 mph - N/A   Overcast
10:53 PM 46.9 °F - 33.1 °F 59% 30.15 in 10.0 mi Calm Calm - N/A   Overcast
11:53 PM 45.0 °F 42.6 °F 35.1 °F 68% 30.15 in 10.0 mi NW 4.6 mph - N/A   Overcast